Billings, MT

4:21 AM MDT on June 25, 2017 (GMT -0600)
Billings Logan International

Weather History for KBIL - September, 2012

Change the Weather History Date:

Friday, September 14, 2012

  Actual Average Record
Temperature  
Mean Temperature 64 °F 61 °F  
Max Temperature 86 °F 74 °F 97 °F (1948)
Min Temperature 42 °F 48 °F 31 °F (1970)
Degree Days  
Heating Degree Days 1 6  
Month to date heating degree days 32 54  
Since 1 July heating degree days 39 91  
Cooling Degree Days 0 2  
Month to date cooling degree days 45 37  
Year to date cooling degree days 938 619  
Growing Degree Days 14 (Base 50)    
Moisture  
Dew Point 26 °F    
Average Humidity 23    
Maximum Humidity 53    
Minimum Humidity 5    
Precipitation  
Precipitation 0.00 in 0.04 in 1.21 in (2013)
Month to date precipitation T 0.57  
Year to date precipitation 5.08 10.62  
Snow  
Snow 0.00 in 0.00 in 5.70 in (1982)
Month to date snowfall 0.0 0.2  
Since 1 July snowfall 0.0 0.2  
Since 1 September snowfall 0.0 0.2  
Snow Depth 0.00 in    
Sea Level Pressure  
Sea Level Pressure 30.14 in    
Wind  
Wind Speed 7 mph (SW)    
Max Wind Speed 15 mph    
Max Gust Speed 15 mph    
Visibility 10 miles    
Events      
T = Trace of Precipitation, MM = Missing Value Source: NWS Daily Summary

Daily Weather History Graph

Daily Weather History Graph

Search for Another Location

Airport or City:

Trip Planner

Search our weather history database for the weather conditions in past years. The results will help you decide how hot, cold, wet, or windy it might be!

Date:

Astronomy

Sep. 14, 2012 Rise Set
Actual Time 6:51 AM MDT 7:26 PM MDT
Civil Twilight 6:21 AM MDT 7:56 PM MDT
Nautical Twilight 5:46 AM MDT 8:31 PM MDT
Astronomical Twilight 5:09 AM MDT 9:08 PM MDT
Moon 5:17 AM MDT (9/14) 6:24 PM MDT (9/14)
Length of Visible Light 13h 34m
Length of Day
12h 34m
Waning Crescent, 2% of the Moon is Illuminated
Sep 14
Waning Crescent
Sep 15
New
Sep 22
First Quarter
Sep 29
Full
Oct 8
Last Quarter

Hourly Weather History & Observations

Time (MDT) Temp. Windchill Dew Point Humidity Pressure Visibility Wind Dir Wind Speed Gust Speed Precip Events Conditions
12:53 AM 55.9 °F - 24.1 °F 29% 30.30 in 10.0 mi Calm Calm - N/A   Clear
1:53 AM 57.9 °F - 24.1 °F 27% 30.28 in 10.0 mi North 4.6 mph - N/A   Clear
2:53 AM 55.0 °F - 27.0 °F 34% 30.27 in 10.0 mi South 3.5 mph - N/A   Clear
3:53 AM 53.1 °F - 26.1 °F 35% 30.26 in 10.0 mi Calm Calm - N/A   Clear
4:53 AM 46.9 °F - 27.0 °F 46% 30.26 in 10.0 mi WSW 4.6 mph - N/A   Clear
5:53 AM 52.0 °F - 25.0 °F 35% 30.24 in 10.0 mi WSW 4.6 mph - N/A   Clear
6:53 AM 44.1 °F 40.8 °F 28.0 °F 53% 30.25 in 10.0 mi SSW 5.8 mph - N/A   Clear
7:53 AM 46.9 °F - 26.1 °F 44% 30.25 in 10.0 mi SW 8.1 mph - N/A   Clear
8:53 AM 48.9 °F - 27.0 °F 43% 30.24 in 10.0 mi SW 10.4 mph - N/A   Clear
9:53 AM 57.9 °F - 25.0 °F 28% 30.22 in 10.0 mi SW 10.4 mph - N/A   Clear
10:53 AM 60.1 °F - 28.9 °F 31% 30.20 in 10.0 mi SSW 9.2 mph - N/A   Clear
11:53 AM 68.0 °F - 30.9 °F 25% 30.17 in 10.0 mi South 10.4 mph - N/A   Clear
12:53 PM 72.0 °F - 27.0 °F 19% 30.14 in 10.0 mi Calm Calm - N/A   Clear
1:53 PM 79.0 °F - 28.0 °F 15% 30.09 in 10.0 mi SSE 5.8 mph - N/A   Clear
2:53 PM 84.9 °F - 30.9 °F 14% 30.05 in 10.0 mi SW 6.9 mph - N/A   Clear
3:53 PM 84.9 °F - 25.0 °F 11% 30.04 in 10.0 mi WSW 10.4 mph - N/A   Clear
4:53 PM 86.0 °F - 23.0 °F 10% 30.02 in 10.0 mi SSW 11.5 mph - N/A   Clear
5:53 PM 82.9 °F - 24.1 °F 12% 30.01 in 10.0 mi SW 6.9 mph - N/A   Clear
6:53 PM 82.0 °F - 26.1 °F 13% 30.03 in 10.0 mi WSW 10.4 mph - N/A   Clear
7:53 PM 79.0 °F - 24.1 °F 13% 30.03 in 10.0 mi WSW 10.4 mph - N/A   Partly Cloudy
8:53 PM 69.1 °F - 21.9 °F 17% 30.06 in 10.0 mi West 11.5 mph - N/A   Clear
9:53 PM 72.0 °F - 28.0 °F 20% 30.04 in 10.0 mi SSW 8.1 mph - N/A   Clear
10:53 PM 66.9 °F - 26.1 °F 21% 30.04 in 10.0 mi Calm Calm - N/A   Clear
11:53 PM 66.9 °F - 25.0 °F 21% 30.02 in 10.0 mi SSW 8.1 mph - N/A   Clear